Time,TemperatureF,DewpointF,PressureIn,WindDirection,WindDirectionDegrees,WindSpeedMPH,WindSpeedGustMPH,Humidity,HourlyPrecipIn,Conditions,Clouds,dailyrainin,SoftwareType,DateUTC
2013-03-23 00:22:00,52.0,50.0,29.98,North,-999,0.0,0.0,94,0.00,,,-99.99,,2013-03-23 07:22:00,
2013-03-23 00:32:00,52.0,50.0,29.98,North,-999,0.0,0.0,94,0.00,,,-99.99,,2013-03-23 07:32:00,
2013-03-23 00:42:00,52.0,50.0,29.98,North,-999,0.0,0.0,94,0.00,,,-99.99,,2013-03-23 07:42:00,
2013-03-23 01:22:00,52.0,51.0,29.97,North,-999,0.0,0.0,95,0.00,,,-99.99,,2013-03-23 08:22:00,
2013-03-23 01:32:00,52.0,51.0,29.97,North,-999,0.0,0.0,95,0.00,,,-99.99,,2013-03-23 08:32:00,
2013-03-23 01:42:00,52.0,51.0,29.97,North,-999,0.0,0.0,95,0.00,,,-99.99,,2013-03-23 08:42:00,
2013-03-23 02:22:00,48.0,47.0,29.98,North,-999,0.0,0.0,96,0.00,,,-99.99,,2013-03-23 09:22:00,
2013-03-23 02:33:00,48.0,47.0,29.98,North,-999,0.0,0.0,96,0.00,,,-99.99,,2013-03-23 09:33:00,
2013-03-23 02:42:00,48.0,47.0,29.98,North,-999,0.0,0.0,96,0.00,,,-99.99,,2013-03-23 09:42:00,
2013-03-23 03:23:00,48.0,47.0,29.96,North,0,0.0,3.0,97,0.00,,,-99.99,,2013-03-23 10:23:00,
2013-03-23 03:33:00,48.0,47.0,29.96,North,0,0.0,3.0,97,0.00,,,-99.99,,2013-03-23 10:33:00,
2013-03-23 03:42:00,48.0,47.0,29.96,North,0,0.0,3.0,97,0.00,,,-99.99,,2013-03-23 10:42:00,
2013-03-23 04:22:00,48.0,47.0,29.95,North,-999,0.0,0.0,97,0.00,,,-99.99,,2013-03-23 11:22:00,
2013-03-23 04:32:00,48.0,47.0,29.95,North,-999,0.0,0.0,97,0.00,,,-99.99,,2013-03-23 11:32:00,
2013-03-23 04:42:00,48.0,47.0,29.95,North,-999,0.0,0.0,97,0.00,,,-99.99,,2013-03-23 11:42:00,
2013-03-23 05:22:00,46.0,45.0,29.97,North,-999,0.0,0.0,97,0.00,,,-99.99,,2013-03-23 12:22:00,
2013-03-23 05:33:00,46.0,45.0,29.97,North,-999,0.0,0.0,97,0.00,,,-99.99,,2013-03-23 12:33:00,
2013-03-23 05:42:00,46.0,45.0,29.97,North,-999,0.0,0.0,97,0.00,,,-99.99,,2013-03-23 12:42:00,
2013-03-23 06:22:00,46.0,45.0,29.98,North,-999,0.0,0.0,97,0.00,,,-99.99,,2013-03-23 13:22:00,
2013-03-23 06:32:00,46.0,45.0,29.98,North,-999,0.0,0.0,97,0.00,,,-99.99,,2013-03-23 13:32:00,
2013-03-23 06:42:00,46.0,45.0,29.98,North,-999,0.0,0.0,97,0.00,,,-99.99,,2013-03-23 13:42:00,
2013-03-23 07:22:00,48.0,47.0,29.99,North,-999,0.0,0.0,98,0.00,,,-99.99,,2013-03-23 14:22:00,
2013-03-23 07:32:00,48.0,47.0,29.99,North,-999,0.0,0.0,98,0.00,,,-99.99,,2013-03-23 14:32:00,
2013-03-23 07:42:00,48.0,47.0,29.99,North,-999,0.0,0.0,98,0.00,,,-99.99,,2013-03-23 14:42:00,
2013-03-23 08:22:00,49.0,48.0,30.01,North,-999,0.0,0.0,97,0.00,,,-99.99,,2013-03-23 15:22:00,
2013-03-23 08:33:00,49.0,48.0,30.01,North,-999,0.0,0.0,97,0.00,,,-99.99,,2013-03-23 15:33:00,
2013-03-23 08:43:00,49.0,48.0,30.01,North,-999,0.0,0.0,97,0.00,,,-99.99,,2013-03-23 15:43:00,
2013-03-23 09:23:00,52.0,51.0,30.04,North,-999,0.0,0.0,95,0.00,,,-99.99,,2013-03-23 16:23:00,
2013-03-23 09:32:00,52.0,51.0,30.04,North,-999,0.0,0.0,95,0.00,,,-99.99,,2013-03-23 16:32:00,
2013-03-23 09:42:00,52.0,51.0,30.04,North,-999,0.0,0.0,95,0.00,,,-99.99,,2013-03-23 16:42:00,
2013-03-23 10:22:00,54.0,51.0,30.05,West,280,2.0,6.0,91,0.00,,,-99.99,,2013-03-23 17:22:00,
2013-03-23 10:32:00,54.0,51.0,30.05,West,280,2.0,6.0,91,0.00,,,-99.99,,2013-03-23 17:32:00,
2013-03-23 10:42:00,54.0,51.0,30.05,West,280,2.0,6.0,91,0.00,,,-99.99,,2013-03-23 17:42:00,
2013-03-23 11:22:00,60.0,53.0,30.05,WNW,300,2.0,10.0,77,0.00,,,-99.99,,2013-03-23 18:22:00,
2013-03-23 11:32:00,60.0,53.0,30.05,WNW,300,2.0,10.0,77,0.00,,,-99.99,,2013-03-23 18:32:00,
2013-03-23 11:42:00,60.0,53.0,30.05,WNW,300,2.0,10.0,77,0.00,,,-99.99,,2013-03-23 18:42:00,
2013-03-23 12:22:00,65.0,48.0,30.03,NW,310,6.0,10.0,55,0.00,,,-99.99,,2013-03-23 19:22:00,
2013-03-23 12:32:00,65.0,48.0,30.03,NW,310,6.0,10.0,55,0.00,,,-99.99,,2013-03-23 19:32:00,
2013-03-23 12:42:00,65.0,48.0,30.03,NW,310,6.0,10.0,55,0.00,,,-99.99,,2013-03-23 19:42:00,
2013-03-23 13:22:00,70.0,50.0,30.02,West,270,8.0,12.0,49,0.00,,,-99.99,,2013-03-23 20:22:00,
2013-03-23 13:32:00,70.0,50.0,30.02,West,270,8.0,12.0,49,0.00,,,-99.99,,2013-03-23 20:32:00,
2013-03-23 13:42:00,70.0,50.0,30.02,West,270,8.0,12.0,49,0.00,,,-99.99,,2013-03-23 20:42:00,
2013-03-23 14:22:00,75.0,40.0,30.02,South,190,2.0,12.0,28,0.00,,,-99.99,,2013-03-23 21:22:00,
2013-03-23 14:32:00,75.0,40.0,30.02,South,190,2.0,12.0,28,0.00,,,-99.99,,2013-03-23 21:32:00,
2013-03-23 14:43:00,75.0,40.0,30.02,South,190,2.0,12.0,28,0.00,,,-99.99,,2013-03-23 21:43:00,
2013-03-23 15:23:00,74.0,47.0,30.01,SSW,200,9.0,20.0,39,0.00,,,-99.99,,2013-03-23 22:23:00,
2013-03-23 15:32:00,74.0,47.0,30.01,SSW,200,9.0,20.0,39,0.00,,,-99.99,,2013-03-23 22:32:00,
2013-03-23 16:22:00,74.0,42.0,29.99,SSW,200,9.0,18.0,32,0.00,,,-99.99,,2013-03-23 23:22:00,
2013-03-23 16:32:00,74.0,42.0,29.99,SSW,200,9.0,18.0,32,0.00,,,-99.99,,2013-03-23 23:32:00,
2013-03-23 16:42:00,74.0,42.0,29.99,SSW,200,9.0,18.0,32,0.00,,,-99.99,,2013-03-23 23:42:00,
2013-03-23 17:22:00,73.0,43.0,29.98,SSW,210,5.0,15.0,34,0.00,,,-99.99,,2013-03-24 00:22:00,
2013-03-23 17:32:00,73.0,43.0,29.98,SSW,210,5.0,15.0,34,0.00,,,-99.99,,2013-03-24 00:32:00,
2013-03-23 17:42:00,73.0,43.0,29.98,SSW,210,5.0,15.0,34,0.00,,,-99.99,,2013-03-24 00:42:00,
2013-03-23 18:22:00,71.0,49.0,29.99,South,170,7.0,14.0,45,0.00,,,-99.99,,2013-03-24 01:22:00,
2013-03-23 18:32:00,71.0,49.0,29.99,South,170,7.0,14.0,45,0.00,,,-99.99,,2013-03-24 01:32:00,
2013-03-23 18:42:00,71.0,49.0,29.99,South,170,7.0,14.0,45,0.00,,,-99.99,,2013-03-24 01:42:00,
2013-03-23 19:22:00,64.0,51.0,30.01,South,170,7.0,14.0,62,0.00,,,-99.99,,2013-03-24 02:22:00,
2013-03-23 19:32:00,64.0,51.0,30.01,South,170,7.0,14.0,62,0.00,,,-99.99,,2013-03-24 02:32:00,
2013-03-23 19:42:00,64.0,51.0,30.01,South,170,7.0,14.0,62,0.00,,,-99.99,,2013-03-24 02:42:00,
2013-03-23 20:22:00,59.0,52.0,30.02,SE,130,5.0,11.0,78,0.00,,,-99.99,,2013-03-24 03:22:00,
2013-03-23 20:33:00,59.0,52.0,30.02,SE,130,5.0,11.0,78,0.00,,,-99.99,,2013-03-24 03:33:00,
2013-03-23 20:42:00,59.0,52.0,30.02,SE,130,5.0,11.0,78,0.00,,,-99.99,,2013-03-24 03:42:00,
2013-03-23 21:22:00,58.0,53.0,30.03,North,0,0.0,10.0,83,0.00,,,-99.99,,2013-03-24 04:22:00,
2013-03-23 21:32:00,58.0,53.0,30.03,North,0,0.0,10.0,83,0.00,,,-99.99,,2013-03-24 04:32:00,
2013-03-23 21:42:00,58.0,53.0,30.03,North,0,0.0,10.0,83,0.00,,,-99.99,,2013-03-24 04:42:00,
2013-03-23 22:22:00,55.0,52.0,30.06,North,0,0.0,7.0,89,0.00,,,-99.99,,2013-03-24 05:22:00,
2013-03-23 22:32:00,55.0,52.0,30.06,North,0,0.0,7.0,89,0.00,,,-99.99,,2013-03-24 05:32:00,
2013-03-23 22:42:00,55.0,52.0,30.06,North,0,0.0,7.0,89,0.00,,,-99.99,,2013-03-24 05:42:00,
2013-03-23 23:22:00,54.0,52.0,30.07,South,190,3.0,6.0,93,0.00,,,-99.99,,2013-03-24 06:22:00,
2013-03-23 23:32:00,54.0,52.0,30.07,South,190,3.0,6.0,93,0.00,,,-99.99,,2013-03-24 06:32:00,
2013-03-23 23:42:00,54.0,52.0,30.07,South,190,3.0,6.0,93,0.00,,,-99.99,,2013-03-24 06:42:00,